Regional Weather Roundup
Issued by NWS

Home | Current Version | Previous Version | Text Only | Print | Product List | Glossary Off
Versions: 1 2 3 4 5 6 7 8 9 10 11 12 13 14 15 16 17 18 19 20 21 22 23 24 25 26 27

000
ASUS45 KCYS 092310
RWRWY

WYOMING REGIONAL WEATHER ROUNDUP
NATIONAL WEATHER SERVICE CHEYENNE WY
400 PM MST SAT DEC 09 2017

NOTE:  "FAIR" INDICATES FEW OR NO CLOUDS BELOW 12,000 FEET
WITH NO SIGNIFICANT WEATHER AND/OR OBSTRUCTIONS TO VISIBILITY.

WYZ001-100000-
YELLOWSTONE NATIONAL PARK

CITY           SKY/WX    TMP DP  RH WIND       PRES   REMARKS
LK YELLOWSTONE   N/A     25  21  85 CALM      30.55S
W YELLOWSTONE  NOT AVBL

$$
WYZ002>013-054>058-071-098>099-100000-
NORTHERN WYOMING

CITY           SKY/WX    TMP DP  RH WIND       PRES   REMARKS
JACKSON        FAIR      30  18  60 CALM      30.57S
CODY           FAIR      34  18  52 NE10      30.36R WCI  26
GREYBULL       FAIR      34  16  47 N3        30.37R
WORLAND        FAIR      39  24  55 CALM      30.35S
SHERIDAN       FAIR      48  11  22 NW14      30.28R
BUFFALO        FAIR      50   6  16 NW9       30.31R
GILLETTE       FAIR      48  12  23 NW17      30.25F
HULETT         FAIR      46  16  29 SW8       30.24R
NEWCASTLE      FAIR      43  16  33 N9        30.25S

$$
WYZ014>020-022>026-101>103-100000-
CENTRAL WYOMING

CITY           SKY/WX    TMP DP  RH WIND       PRES   REMARKS
BIG PINEY      FAIR      46  -5  11 NW14      30.48R
PINEDALE       FAIR      43   0  16 W14       30.47R
DUBOIS         FAIR      41  -8  12 NW23      30.43S
LANDER         FAIR      37  20  50 CALM      30.37S
RIVERTON       FAIR      35  18  49 E6        30.40R WCI  30
CASPER         FAIR      35  18  49 SW12G30   30.36S WCI  27
DOUGLAS        FAIR      42  21  43 NW13      30.32S

$$
WYZ021-027>030-104>119-100000-
SOUTHERN WYOMING

CITY           SKY/WX    TMP DP  RH WIND       PRES   REMARKS
EVANSTON       FAIR      43  14  31 SW6       30.53S
FORT BRIDGER   FAIR      44   8  22 W13       30.53S
ROCK SPRINGS   FAIR      44  10  25 W10       30.46R
DIXON          FAIR      31  18  58 CALM      30.52S
RAWLINS        FAIR      33  14  45 VRB6      30.44S WCI  28
SARATOGA       FAIR      32  19  59 SW8       30.46S WCI  25
LARAMIE        FAIR      42   2  18 W9        30.38R
CHEYENNE       FAIR      48   0  13 NW21G29   30.33R
TORRINGTON     FAIR      53   6  15 NW17      30.26R
PINE BLUFFS    FAIR      46   5  18 NW21G28   30.31R

$$




USA.gov is the U.S. government's official web portal to all federal, state and local government web resources and services.